N2RDT Weather Reports


time (UTC)temp
C
wind
direction
speed
KPH
gust
KPH
rain 1hr
cm
rain 24hr
cm
rain mn
cm
humidity
%
barometer
mb
20260503033035 8 88 1.6 3.2 0.00 0.46 0.46 97 1014.2
20260503032533 8 78 3.2 3.2 0.00 0.46 0.46 97 1014.5
20260503032031 8 77 1.6 3.2 0.00 0.46 0.46 97 1014.3
20260503031529 8 97 0.0 3.2 0.00 0.46 0.46 97 1014.3
20260503031026 8 64 0.0 3.2 0.00 0.46 0.46 97 1014.2
20260503030521 8 53 0.0 3.2 0.00 0.46 0.46 97 1014.0
20260503030019 8 40 0.0 1.6 0.00 0.46 0.46 97 1014.3
20260503025515 9 58 0.0 3.2 0.00 0.46 0.46 97 1014.2
20260503025014 9 86 1.6 3.2 0.00 0.46 0.46 97 1014.1
20260503024509 9 84 1.6 3.2 0.00 0.46 0.46 97 1014.1
20260503024007 9 56 3.2 3.2 0.00 0.46 0.46 97 1013.9
20260503023503 9 72 1.6 3.2 0.00 0.46 0.46 97 1014.1
20260503023000 9 62 0.0 3.2 0.00 0.46 0.46 96 1014.0
20260503022456 9 47 1.6 3.2 0.00 0.46 0.46 96 1014.1
20260503021951 9 85 1.6 3.2 0.00 0.46 0.46 96 1014.1
20260503021448 9 105 0.0 1.6 0.00 0.46 0.46 96 1014.1
20260503020945 9 99 1.6 3.2 0.00 0.46 0.46 96 1014.0
20260503020443 10 86 1.6 3.2 0.00 0.46 0.46 96 1014.0
20260503015939 10 78 1.6 3.2 0.00 0.46 0.46 96 1014.3
20260503015436 10 64 1.6 3.2 0.00 0.46 0.46 96 1014.1
20260503014932 10 71 3.2 3.2 0.00 0.46 0.46 96 1014.0
20260503014429 10 129 4.8 4.8 0.00 0.46 0.46 96 1014.0
20260503013927 10 130 3.2 4.8 0.00 0.46 0.46 96 1014.0
20260503013424 10 79 0.0 3.2 0.00 0.46 0.46 96 1013.6
20260503012921 10 107 3.2 3.2 0.00 0.46 0.46 96 1013.7
20260503012419 10 83 0.0 3.2 0.00 0.46 0.46 96 1013.7
20260503011915 10 88 0.0 1.6 0.00 0.46 0.46 96 1013.7
20260503011412 10 57 0.0 1.6 0.00 0.46 0.46 95 1013.5
20260503010909 10 113 0.0 0.0 0.00 0.46 0.46 95 1013.5
20260503010406 10 51 0.0 1.6 0.00 0.46 0.46 95 1013.3
20260503005903 10 113 0.0 1.6 0.00 0.46 0.46 95 1013.4
20260503005400 10 83 0.0 3.2 0.00 0.46 0.46 95 1013.1
20260503004856 10 113 1.6 3.2 0.00 0.46 0.46 95 1013.1
20260503004354 10 160 3.2 6.4 0.00 0.46 0.46 95 1013.1
20260503003851 10 146 6.4 6.4 0.00 0.46 0.46 94 1013.2
20260503003348 10 76 0.0 3.2 0.00 0.46 0.46 94 1012.9
20260503002845 11 66 1.6 3.2 0.00 0.46 0.46 94 1012.8
20260503002342 11 69 1.6 3.2 0.00 0.46 0.46 93 1012.9
20260503001838 11 76 1.6 3.2 0.00 0.46 0.46 93 1012.7
20260503001335 11 111 0.0 1.6 0.00 0.46 0.46 92 1012.7
20260503000832 11 121 0.0 3.2 0.00 0.46 0.46 92 1012.7
20260503000330 11 105 0.0 1.6 0.00 0.46 0.46 91 1012.4
20260502235826 11 101 1.6 3.2 0.00 0.46 0.46 91 1012.5
20260502235324 11 70 1.6 4.8 0.00 0.46 0.46 90 1012.4
20260502234820 11 73 3.2 3.2 0.00 0.46 0.46 90 1012.5
20260502234317 11 80 3.2 4.8 0.00 0.46 0.46 90 1012.7
20260502233814 11 73 3.2 4.8 0.00 0.46 0.46 89 1012.5
20260502233310 12 69 1.6 4.8 0.00 0.46 0.46 88 1012.5
20260502232807 12 70 3.2 3.2 0.00 0.46 0.46 88 1012.5
20260502232305 12 73 1.6 4.8 0.00 0.46 0.46 87 1012.3
20260502231800 12 50 3.2 4.8 0.00 0.46 0.46 87 1012.2
20260502231258 12 46 3.2 3.2 0.00 0.46 0.46 87 1012.2
20260502230756 12 69 3.2 3.2 0.00 0.46 0.46 88 1012.1
20260502230254 12 75 3.2 3.2 0.00 0.46 0.46 88 1012.2
20260502225750 12 69 3.2 3.2 0.00 0.46 0.46 88 1012.2
20260502225247 12 104 0.0 3.2 0.00 0.46 0.46 87 1012.2
20260502224743 12 62 0.0 0.0 0.00 0.46 0.46 87 1012.2
20260502224240 12 113 0.0 0.0 0.00 0.46 0.46 87 1012.3
20260502223738 12 62 0.0 3.2 0.00 0.46 0.46 86 1012.3
20260502223236 12 124 0.0 1.6 0.00 0.46 0.46 84 1012.2
20260502222733 12 61 0.0 3.2 0.00 0.46 0.46 83 1012.1
20260502222230 12 113 0.0 1.6 0.00 0.46 0.46 84 1012.1
20260502221726 12 96 1.6 3.2 0.00 0.46 0.46 81 1012.0
20260502221223 12 89 0.0 1.6 0.00 0.46 0.46 82 1011.9
20260502220719 12 64 1.6 3.2 0.00 0.46 0.46 81 1011.7
20260502220215 12 20 0.0 4.8 0.00 0.46 0.46 81 1011.7
20260502215712 12 48 3.2 3.2 0.00 0.46 0.46 81 1011.7
20260502215209 12 31 4.8 6.4 0.00 0.46 0.46 80 1011.6
20260502214707 12 56 4.8 8.0 0.00 0.46 0.46 80 1011.9
20260502214204 13 46 4.8 4.8 0.00 0.46 0.46 80 1011.9
20260502213701 13 69 3.2 3.2 0.00 0.46 0.46 80 1011.8
20260502213158 13 63 1.6 4.8 0.00 0.46 0.46 78 1011.9
20260502212656 13 57 1.6 4.8 0.00 0.46 0.46 77 1011.8
20260502212155 13 7 0.0 3.2 0.00 0.46 0.46 80 1012.0
20260502211650 13 46 3.2 6.4 0.00 0.46 0.46 80 1011.8
20260502211147 13 47 3.2 4.8 0.00 0.46 0.46 80 1011.9
20260502210644 13 45 3.2 4.8 0.00 0.46 0.46 80 1011.8
20260502210141 13 21 3.2 6.4 0.00 0.46 0.46 80 1011.8
20260502205638 13 340 0.0 3.2 0.00 0.46 0.46 81 1011.9
20260502205135 12 63 6.4 6.4 0.00 0.46 0.46 81 1012.0
20260502204632 13 75 1.6 6.4 0.00 0.46 0.46 82 1012.2
20260502204129 13 43 4.8 8.0 0.00 0.46 0.46 80 1012.0
20260502203626 13 57 3.2 6.4 0.00 0.46 0.46 80 1012.0
20260502203124 13 312 1.6 6.4 0.00 0.46 0.46 82 1012.0
20260502202619 12 68 3.2 8.0 0.00 0.46 0.46 81 1011.9
20260502202117 13 34 3.2 8.0 0.00 0.46 0.46 81 1012.0
20260502201613 12 61 4.8 9.7 0.00 0.46 0.46 81 1011.9
20260502201110 12 27 1.6 11.3 0.00 0.46 0.46 83 1011.8
20260502200606 13 20 9.7 11.3 0.00 0.46 0.46 81 1012.0
20260502200104 13 326 6.4 16.1 0.00 0.46 0.46 78 1012.1
20260502195602 13 162 3.2 6.4 0.00 0.46 0.46 78 1012.0
20260502195057 13 27 3.2 4.8 0.00 0.46 0.46 78 1012.2
20260502194554 13 334 4.8 9.7 0.00 0.46 0.46 79 1012.0
20260502194050 13 318 4.8 6.4 0.00 0.46 0.46 79 1012.2
20260502193548 13 48 8.0 9.7 0.00 0.46 0.46 80 1012.4
20260502193044 13 288 1.6 6.4 0.00 0.46 0.46 80 1012.5
20260502192540 13 27 9.7 12.9 0.00 0.46 0.46 80 1012.3
20260502192038 12 350 3.2 17.7 0.00 0.46 0.46 81 1012.4
20260502191534 12 49 1.6 9.7 0.00 0.46 0.46 82 1012.5
20260502191032 12 23 3.2 9.7 0.00 0.46 0.46 82 1012.4
20260502190529 12 333 4.8 4.8 0.00 0.46 0.46 83 1012.5
20260502190026 12 49 6.4 8.0 0.00 0.46 0.46 82 1012.4
20260502185521 12 2 3.2 16.1 0.00 0.46 0.46 84 1012.8
20260502185018 12 36 6.4 14.5 0.00 0.46 0.46 84 1012.6
20260502184514 12 298 3.2 14.5 0.00 0.46 0.46 85 1012.7
20260502184010 12 36 6.4 14.5 0.00 0.46 0.46 85 1012.8
20260502183507 12 22 9.7 12.9 0.00 0.46 0.46 85 1012.6
20260502183001 13 20 8.0 16.1 0.00 0.46 0.46 82 1012.9
20260502182457 12 334 4.8 6.4 0.00 0.46 0.46 85 1013.0
20260502181954 12 5 0.0 6.4 0.00 0.46 0.46 87 1013.1
20260502181452 12 13 3.2 9.7 0.00 0.46 0.46 87 1013.2
20260502180951 12 25 6.4 11.3 0.00 0.46 0.46 88 1013.0
20260502180447 11 31 6.4 12.9 0.00 0.46 0.46 88 1013.1
20260502170406 11 27 1.6 3.2 0.00 0.46 0.46 92 1013.6
20260502163849 11 22 4.8 4.8 0.00 0.43 0.43 91 1013.9
20260502163346 11 287 3.2 4.8 0.05 0.43 0.43 92 1014.1
20260502162844 11 52 3.2 4.8 0.05 0.43 0.43 92 1014.3
20260502162340 11 347 4.8 6.4 0.00 0.43 0.43 91 1014.3
20260502161837 11 7 6.4 9.7 0.05 0.43 0.43 90 1014.3
20260502161333 11 329 3.2 4.8 0.00 0.43 0.43 91 1014.2
20260502160831 11 55 3.2 6.4 0.00 0.43 0.43 91 1014.1
20260502160330 11 25 1.6 11.3 0.00 0.43 0.43 90 1014.3
20260502152259 11 328 3.2 4.8 0.00 0.41 0.41 92 1014.0
20260502151756 11 339 3.2 8.0 0.13 0.41 0.41 91 1014.0
20260502151253 11 318 3.2 6.4 0.05 0.41 0.41 91 1014.1
20260502150751 11 329 4.8 6.4 0.05 0.38 0.38 91 1014.3
20260502150247 11 320 6.4 8.0 0.05 0.38 0.38 91 1014.3
20260502130636 11 63 3.2 9.7 0.13 0.15 0.15 92 1013.2
20260502130134 11 298 3.2 6.4 0.18 0.13 0.13 92 1013.2
20260502123620 11 6 6.4 6.4 0.00 0.08 0.08 91 1012.8
20260502123115 11 267 3.2 4.8 0.05 0.08 0.08 91 1012.6
20260502122612 11 15 4.8 6.4 0.05 0.08 0.08 90 1012.6
20260502122109 11 300 4.8 8.0 0.00 0.08 0.08 90 1012.6
20260502121607 11 39 4.8 6.4 0.05 0.08 0.08 90 1012.7
20260502121105 11 12 4.8 9.7 0.05 0.08 0.08 90 1012.7
20260502120600 11 324 4.8 4.8 0.05 0.05 0.05 90 1012.7
20260502115556 11 49 6.4 6.4 0.00 0.05 0.05 89 1012.8
20260502115051 11 346 3.2 6.4 0.05 0.05 0.05 89 1012.8
20260502114548 11 9 3.2 6.4 0.05 0.05 0.05 89 1012.8
20260502114044 11 315 4.8 6.4 0.00 0.05 0.05 89 1012.7
20260502113542 11 330 0.0 8.0 0.05 0.05 0.05 89 1012.8
20260502113041 11 19 3.2 6.4 0.05 0.05 0.05 89 1013.0
20260502112538 11 300 1.6 6.4 0.00 0.03 0.03 88 1012.9
20260502112036 11 9 3.2 4.8 0.05 0.03 0.03 88 1012.9
20260502111532 11 3 3.2 4.8 0.05 0.03 0.03 88 1012.8
20260502111030 11 39 3.2 4.8 0.05 0.03 0.03 87 1013.0
20260502110527 11 7 0.0 4.8 0.05 0.03 0.03 86 1012.9
20260502110025 11 345 3.2 6.4 0.05 0.00 0.00 85 1013.0
20260502105522 11 272 0.0 4.8 0.05 0.00 0.00 84 1013.1
20260502105020 11 302 0.0 3.2 0.00 0.00 0.00 83 1013.1
20260502104516 12 82 3.2 6.4 0.00 0.00 0.00 81 1012.9
20260502104014 12 313 3.2 3.2 0.00 0.00 0.00 81 1013.0
20260502103511 12 103 3.2 4.8 0.00 0.00 0.00 80 1013.0
20260502103009 12 137 4.8 4.8 0.00 0.00 0.00 80 1013.0
20260502102505 12 184 0.0 4.8 0.00 0.00 0.00 82 1012.9
20260502102003 12 184 0.0 8.0 0.00 0.00 0.00 82 1012.8
20260502101500 12 307 4.8 9.7 0.00 0.00 0.00 82 1012.9
20260502100959 11 5 1.6 3.2 0.00 0.00 0.00 85 1012.9
20260502100457 11 356 3.2 3.2 0.00 0.00 0.00 86 1012.8
20260502091431 11 142 1.6 3.2 0.00 0.00 0.00 90 1012.9
20260502090928 11 80 3.2 3.2 0.00 0.00 0.00 91 1012.8
20260502090426 11 114 3.2 3.2 0.00 0.00 0.00 91 1012.6
20260502071320 10 33 1.6 1.6 0.00 0.00 0.00 93 1012.3
20260502070818 10 33 1.6 1.6 0.00 0.00 0.00 93 1012.4
20260502070316 10 33 1.6 1.6 0.00 0.00 0.00 93 1012.0
20260502065815 10 33 1.6 3.2 0.00 0.00 0.00 93 1012.2
20260502065312 10 30 1.6 3.2 0.00 0.00 0.00 93 1012.2
20260502064810 10 8 1.6 3.2 0.00 0.00 0.00 93 1012.4
20260502064308 10 51 3.2 3.2 0.00 0.00 0.00 93 1012.4
20260502063805 10 52 3.2 3.2 0.00 0.00 0.00 93 1012.4
20260502063303 10 46 3.2 3.2 0.00 0.00 0.00 93 1012.4
20260502062759 10 39 3.2 3.2 0.00 0.00 0.00 93 1012.6
20260502062257 10 4 3.2 3.2 0.00 0.00 0.00 93 1012.6
20260502061756 10 34 3.2 3.2 0.00 0.00 0.00 93 1012.7
20260502061253 10 14 3.2 4.8 0.00 0.00 0.00 93 1012.6
20260502060753 10 27 3.2 4.8 0.00 0.00 0.00 93 1012.5
20260502060249 10 46 3.2 3.2 0.00 0.00 0.00 93 1012.5
20260502055747 10 53 3.2 3.2 0.00 0.00 0.00 92 1012.5
20260502055244 10 53 3.2 3.2 0.00 0.00 0.00 92 1012.5
20260502054744 10 53 3.2 3.2 0.00 0.00 0.00 92 1012.6
20260502054241 10 53 3.2 3.2 0.00 0.00 0.00 92 1012.8
20260502053738 10 53 3.2 3.2 0.00 0.00 0.00 92 1012.7
20260502053235 10 46 1.6 1.6 0.00 0.00 0.00 91 1012.8
20260502052733 10 46 1.6 1.6 0.00 0.00 0.00 91 1012.7
20260502052231 10 21 0.0 1.6 0.00 0.00 0.00 92 1013.1
20260502051729 11 26 3.2 4.8 0.00 0.00 0.00 92 1012.9
20260502051227 11 26 3.2 4.8 0.00 0.00 0.00 92 1012.9
20260502050723 10 70 3.2 4.8 0.00 0.00 0.00 91 1013.2
20260502050219 10 70 3.2 4.8 0.00 0.00 0.00 91 1013.2
20260502045716 10 70 3.2 4.8 0.00 0.00 0.00 91 1013.1
20260502045214 10 70 3.2 4.8 0.00 0.00 0.00 91 1013.0
20260502044710 10 75 3.2 3.2 0.00 0.00 0.00 91 1013.1
20260502044206 10 119 3.2 3.2 0.00 0.00 0.00 91 1012.8
20260502043704 10 119 3.2 3.2 0.00 0.00 0.00 91 1013.0
20260502043201 10 119 3.2 3.2 0.00 0.00 0.00 91 1013.0
20260502042700 10 119 3.2 3.2 0.00 0.00 0.00 91 1013.2
20260502042158 10 119 3.2 3.2 0.00 0.00 0.00 91 1013.3
20260502041655 10 77 3.2 3.2 0.00 0.00 0.00 91 1013.4
20260502041152 10 55 3.2 4.8 0.00 0.00 0.00 91 1013.3
20260502040649 10 55 3.2 4.8 0.00 0.00 0.00 91 1013.2
20260502040147 10 66 6.4 6.4 0.00 0.00 0.00 92 1013.3
20260502035642 10 66 6.4 6.4 0.00 0.00 0.00 92 1013.3
20260502035139 10 66 6.4 6.4 0.00 0.00 0.00 92 1013.4
20260502034637 10 66 6.4 6.4 0.00 0.00 0.00 92 1013.2
20260502034136 10 66 6.4 6.4 0.00 0.00 0.00 92 1013.3
20260502033633 10 66 6.4 6.4 0.00 0.00 0.00 92 1013.3